www.pogodaiklimat.ru

Погода и климат >> Архив погоды >> Австралия >> Северная территория >> Юлара


ПОГОДА в Юларе

  • Прогноз погоды в Юларе
  • Монитор погоды в Юларе

АРХИВ ПОГОДЫ в Юларе

Время (UTC), дата Ветер
(напр.,м/с)
 
Видим.   Явления Облачность Т
(С)
Тd
(С)
f
(%)
Тe
(С)
Тes
(С)
Комфортность P
(гПа)
Po
(гПа)
Тmin
(С)
Tmax
(С)
R
(мм)
R24
(мм)
S
(см)
02 13.06 В 7 н/о н/о +18.3 +3.4 37 +18 +18 1022.1 964.3 +6.2
03 13.06 В 6 н/о н/о +19.9 +4.0 35 +20 +20 1021.1 963.3
05 13.06 В 6 н/о н/о +21.7 +4.7 33 +22 +22 комфорт 1019.0 961.3
06 13.06 В 4 н/о н/о +21.9 +5.3 34 +22 +22 комфорт 1018.3 960.7
08 13.06 В 4 н/о н/о +21.4 +4.9 34 +22 +22 комфорт 1018.7 961.1
09 13.06 ЮВ 3 н/о н/о +18.7 +4.8 40 +19 +19 1019.6 961.9
11 13.06 ЮВ 3 н/о н/о +15.3 +4.1 47 +15 +15 1020.6 962.9
12 13.06 ЮВ 3 н/о н/о +13.7 +4.3 53 +13 +13 1021.0 963.2
14 13.06 ЮВ 3 н/о н/о +11.8 +3.8 58 +10 +10 1021.0 963.2 +22.3
15 13.06 Ю 3 н/о н/о +9.7 +3.2 64 +8 +8 1020.9 963.1
17 13.06 ЮВ 4 н/о н/о +10.8 +2.6 57 +9 +9 1020.3 962.6
18 13.06 ЮВ 4 н/о н/о +9.5 +2.4 61 +7 +7 1020.2 962.5
20 13.06 ЮВ 4 н/о н/о +9.1 +1.3 58 +7 +7 1020.4 962.7
21 13.06 Ю 3 н/о н/о +7.9 +0.6 60 +5 +5 1021.0 963.2
23 13.06 ЮВ 5 н/о н/о +10.5 +0.5 50 +8 +8 1022.0 964.2
00 14.06 В 5 н/о н/о +14.4 -0.1 37 +13 +13 1022.4 964.6
02 14.06 В 6 н/о н/о +18.9 +1.0 30 +19 +19 1021.6 963.8 +7.3
03 14.06 В 6 н/о н/о +20.3 +1.7 29 +20 +20 1020.5 962.8
05 14.06 В 6 н/о н/о +21.9 +2.6 28 +22 +22 комфорт 1018.4 960.8
06 14.06 ЮВ 5 н/о н/о +22.0 +3.2 29 +22 +22 комфорт 1018.0 960.4
08 14.06 В 4 н/о н/о +21.6 +3.3 30 +22 +22 комфорт 1018.2 960.6
09 14.06 ЮВ 3 н/о н/о +18.8 +3.0 35 +19 +19 1018.7 961.1
11 14.06 В 4 н/о н/о +16.0 +3.4 43 +15 +15 1019.8 962.1
12 14.06 В 4 н/о н/о +15.7 +3.2 43 +15 +15 1020.0 962.3
14 14.06 ЮВ 3 н/о н/о +12.8 +2.6 50 +12 +12 1019.7 962.0 +22.9
15 14.06 В 3 н/о н/о +12.2 +2.6 52 +11 +11 1019.5 961.8
17 14.06 ЮВ 4 н/о н/о +9.6 +2.5 61 +7 +7 1019.1 961.4
18 14.06 ЮВ 4 н/о н/о +9.3 +2.6 63 +7 +7 1018.8 961.2
20 14.06 ЮВ 3 н/о н/о +9.2 +2.8 64 +7 +7 1018.5 960.9
21 14.06 В 3 н/о н/о +9.5 +2.4 61 +7 +7 1018.8 961.2
23 14.06 ЮВ 5 н/о н/о +11.4 +1.6 51 +9 +9 1020.1 962.4
00 15.06 В 8 н/о н/о +15.1 +1.3 39 +13 +13 1020.3 962.6
02 15.06 В 5 н/о н/о +18.7 +2.1 33 +19 +19 1020.1 962.4 +9.0
03 15.06 В 5 н/о н/о +21.0 +2.8 30 +21 +21 комфорт 1018.7 961.1
05 15.06 Ю 3 н/о н/о +22.0 +3.2 29 +22 +22 комфорт 1017.0 959.5
06 15.06 В 2 н/о н/о +23.3 +3.8 28 +23 +23 комфорт 1016.8 959.3
08 15.06 ЮВ 3 н/о н/о +22.5 +3.1 28 +22 +22 комфорт 1017.4 959.8
09 15.06 ЮВ 3 н/о н/о +19.4 +2.7 33 +20 +20 1018.4 960.8
11 15.06 В 3 н/о н/о +16.1 +2.2 39 +16 +16 1020.1 962.4
12 15.06 В 3 н/о н/о +14.9 +2.1 42 +14 +14 1020.5 962.8
14 15.06 Ю 3 н/о н/о +10.6 +1.9 55 +9 +9 1021.3 963.5 +24.1
15 15.06 ЮВ 3 н/о н/о +10.1 +2.2 58 +9 +9 1021.6 963.8
17 15.06 Ю 3 н/о н/о +8.3 +1.9 64 +6 +6 1021.8 964.0
18 15.06 Ю 4 н/о н/о +7.0 +1.5 68 +4 +4 1021.7 963.9
20 15.06 Ю 3 н/о н/о +4.9 +0.9 75 +2 +2 1021.9 964.1
21 15.06 Ю 3 н/о н/о +4.3 +0.6 77 +1 +1 1022.4 964.6
23 15.06 Ю 3 н/о н/о +8.4 +2.4 66 +6 +6 1023.7 965.8
00 16.06 ЮВ 4 н/о н/о +14.2 +3.4 48 +13 +13 1024.3 966.3
02 16.06 В 6 н/о н/о +17.9 +2.2 35 +17 +17 1023.8 965.9 +3.4
03 16.06 В 6 н/о н/о +19.1 +1.6 31 +19 +19 1023.1 965.2
05 16.06 В 4 н/о н/о +20.6 +1.0 27 +21 +21 комфорт 1021.3 963.5
06 16.06 ЮВ 5 н/о н/о +20.7 0.0 25 +21 +21 комфорт 1021.0 963.2
08 16.06 В 4 н/о н/о +20.4 -0.3 25 +21 +21 комфорт 1020.9 963.1
09 16.06 В 3 н/о н/о +18.0 -0.3 29 +18 +18 1021.3 963.5
11 16.06 ЮВ 3 н/о н/о +13.2 -1.5 36 +12 +12 1022.6 964.7
12 16.06 ЮВ 3 н/о н/о +12.3 -0.2 42 +11 +11 1023.0 965.1
14 16.06 ЮВ 3 н/о н/о +8.6 -2.1 47 +7 +7 1022.9 965.0 +21.8
15 16.06 Ю 3 н/о н/о +8.1 -1.4 51 +6 +6 1022.8 964.9
17 16.06 Ю 4 н/о н/о +8.3 -1.0 52 +6 +6 1022.1 964.3
18 16.06 ЮВ 4 н/о н/о +8.0 -1.2 52 +5 +5 1021.9 964.1
20 16.06 Ю 3 н/о н/о +5.4 -1.7 60 +2 +2 1022.8 964.9
21 16.06 ЮВ 3 н/о н/о +6.5 -1.4 57 +4 +4 1023.5 965.6
23 16.06 ЮВ 4 н/о 8/0
[]
+9.0 -0.3 52 +7 +7 1023.6 965.7
00 17.06 ЮВ 4 н/о н/о +12.9 +1.3 45 +12 +12 1024.6 966.6
02 17.06 В 5 н/о н/о +17.9 +1.4 33 +18 +18 1024.4 966.4 +5.4
03 17.06 В 5 н/о н/о +18.8 +0.9 30 +19 +19 1023.3 965.4
05 17.06 ЮВ 3 н/о н/о +21.1 +0.3 25 +21 +21 комфорт 1021.1 963.3
06 17.06 ЮВ 4 н/о н/о +21.1 +1.4 27 +21 +21 комфорт 1020.9 963.1
08 17.06 Ю 5 н/о 5/0
[]
+20.5 +0.4 26 +21 +21 комфорт 1021.4 963.6
09 17.06 ЮВ 3 н/о н/о +17.6 -0.6 29 +18 +18 1021.9 964.1
11 17.06 ЮВ 3 н/о н/о +14.9 -2.1 31 +14 +14 1023.2 965.3
12 17.06 Ю 4 н/о н/о +13.5 -1.6 35 +12 +12 1023.5 965.6
14 17.06 ЮВ 5 н/о н/о +12.8 -1.1 38 +11 +11 1023.8 965.9 +21.8
15 17.06 ЮВ 4 н/о н/о +10.7 -1.4 43 +9 +9 1023.8 965.9
17 17.06 Ю 3 н/о н/о +9.0 -0.9 50 +7 +7 1023.8 965.9
18 17.06 ЮВ 2 н/о н/о +6.3 -1.6 57 +4 +4 1024.1 966.2
20 17.06 ЮВ 4 н/о н/о +6.7 -0.1 62 +3 +3 1024.1 966.2
21 17.06 ЮВ 3 н/о н/о +5.8 -0.3 65 +3 +3 1024.9 966.9
23 17.06 ЮВ 4 н/о н/о +8.7 +0.9 58 +6 +6 1026.3 968.2
00 18.06 В 5 н/о н/о +12.5 +1.5 47 +11 +11 1026.6 968.5
02 18.06 В 7 н/о н/о +16.2 +1.5 37 +15 +15 1026.2 968.1 +4.2
03 18.06 В 8 н/о н/о +17.4 +1.4 34 +16 +16 1024.9 966.9
05 18.06 В 7 н/о н/о +18.4 +1.0 31 +18 +18 1022.7 964.8
06 18.06 ЮВ 5 н/о н/о +18.3 +0.4 30 +18 +18 1022.6 964.7
08 18.06 В 5 н/о н/о +18.0 +0.6 31 +18 +18 1022.3 964.5
09 18.06 В 3 н/о н/о +15.8 +0.4 35 +15 +15 1022.8 964.9
11 18.06 ЮВ 4 н/о н/о +12.0 +0.5 45 +10 +10 1023.8 965.9
12 18.06 ЮВ 3 н/о н/о +11.1 +1.1 50 +10 +10 1023.7 965.8
14 18.06 ЮВ 3 н/о н/о +8.8 +1.0 58 +7 +7 1023.7 965.8 +19.5
15 18.06 ЮВ 3 н/о н/о +8.0 +1.2 62 +6 +6 1023.6 965.7
17 18.06 ЮВ 3 н/о н/о +6.6 +1.3 69 +4 +4 1023.2 965.3
18 18.06 ЮВ 3 н/о н/о +6.4 +1.3 70 +3 +3 1023.1 965.2
20 18.06 ЮВ 3 н/о н/о +4.2 +0.5 77 +1 +1 1023.4 965.5
21 18.06 ЮВ 3 н/о н/о +4.3 +0.8 78 +1 +1 1023.5 965.6
23 18.06 ЮВ 4 н/о н/о +6.7 +1.6 70 +4 +4 1024.9 966.9
00 19.06 В 6 н/о н/о +11.6 +2.4 53 +9 +9 1025.5 967.5
02 19.06 В 7 н/о н/о +15.6 +1.7 39 +14 +14 1024.9 966.9 +3.5
03 19.06 В 5 н/о н/о +16.1 +1.0 36 +15 +15 1024.1 966.2
05 19.06 В 4 н/о н/о +18.3 +0.9 31 +18 +18 1022.0 964.2
06 19.06 В 5 н/о н/о +18.4 +0.5 30 +18 +18 1021.7 963.9
08 19.06 ЮВ 4 н/о н/о +17.7 -0.5 29 +17 +17 1022.2 964.4
09 19.06 ЮВ 3 н/о н/о +15.2 -0.9 33 +15 +15 1022.7 964.8
11 19.06 В 3 н/о н/о +11.4 -0.7 43 +10 +10 1023.2 965.3
12 19.06 В 3 н/о н/о +10.5 -0.9 45 +9 +9 1023.3 965.4
14 19.06 В 3 н/о н/о +8.6 -0.7 52 +7 +7 1023.3 965.4 +19.1
15 19.06 В 3 н/о н/о +7.9 -0.6 55 +6 +6 1023.5 965.6
17 19.06 ЮВ 2 н/о н/о +4.7 -0.7 68 +2 +2 1023.8 965.9
18 19.06 ЮВ 2 н/о н/о +4.1 -1.1 69 +2 +2 1023.9 966.0
20 19.06 Ю 3 н/о н/о +2.8 -1.2 75 -1 -1 1024.4 966.4
21 19.06 Ю 3 н/о н/о +2.1 -1.5 77 -2 -2 1024.9 966.9
23 19.06 Ю 3 н/о н/о +5.1 -0.7 66 +2 +2 1026.6 968.5
00 20.06 ЮВ 4 н/о н/о +8.7 -0.3 53 +6 +6 1027.1 969.0

 

Местоположение метеостанции Юлара (Северная территория, Австралия): широта -25.20 долгота 130.98 высота над уровнем моря 492 м.

В архиве по умолчанию представлена погода в Юларе за последнюю неделю. Архивные данные за месяц целиком и за предыдущие месяцы, начиная с января 2011 года, Вы можете получить, выбрав интересующий диапазон дат из раскрывающегося списка и нажав кнопку "Ввод!".


*Определитесь, кто Вы:
робот инопланетянин человек

Внимание! Время в таблицах - всемирное. Для получения местного времени необходимо прибавить поправку, которая равна 8 ч.

Смотрите также архив погоды в соседних городах и на ближайших метеорологических станциях:

Погода в Эрнабелле (Южная Австралия, Австралия) (169 км)
Погода в Кинторе (Северная территория, Австралия) (270 км)
Погода в Джайлсе (Западная Австралия, Австралия) (271 км)
Погода в Элис-Спрингсе (Северная территория, Австралия) (332 км)
Погода на Виноградной ферма (Северная территория, Австралия) (408 км)
Погода в Уорбертоне (Западная Австралия, Австралия) (453 км)
Погода в Однадатте (Южная Австралия, Австралия) (516 км)
Погода в Кубер-Педи (Южная Австралия, Австралия) (564 км)
Погода в Раббит Флат (Северная территория, Австралия) (567 км)
Погода в Джервойсе (Северная территория, Австралия) (582 км)

Пояснения к столбцам:

Ветер - указаны скорость ветра в м/с - средняя за 10 мин, порывы в срок и между сроками (в фигурных скобках) и направление, откуда дует ветер: С - северный, СВ - северо-восточный, В - восточный, ЮВ - юго-восточный, Ю - южный, ЮЗ - юго-западный, З - западный, СЗ - северо-западный.
Видимость - горизонтальная дальность видимости в метрах или километрах. При видимости от 1 до 10 км при отсутствии осадков обычно наблюдается дымка, при ухудшении видимости до 1 км и менее - туман. В сухую погоду видимость может ухудшаться дымом, пылью или мглою.
Явления - указаны атмосферные явления, наблюдавшиеся в срок или в последний час перед сроком; фигурными скобками обозначены явления, наблюдавшиеся между сроками (за 1-3 часа до срока); квадратными скобками обозначены град или гололедные отложения с указанием их диаметра в мм.
Облачность - указаны через наклонную черту общая и нижняя облачность в баллах и высота нижней границы облаков в метрах; квадратными скобками обозначены формы облаков: Ci - перистые, Cs - перисто-слоистые, Cc - перисто-кучевые, Ac - высококучевые, As - высокослоистые, Sc - слоисто-кучевые, Ns - слоисто-дождевые, Cu - кучевые, Cb - кучево-дождевые. Подробнее классификацию облаков см. в Атласе облаков (PDF).
T - Температура воздуха - температура, измеренная на высоте 2 м над землей.
Td - Температура точки росы - температура, при понижении до которой содержащийся в воздухе водяной пар достигнет насыщения.
f - Относительная влажность воздуха - влажноcть воздуха, измеренная на высоте 2 м над землей.
Te - Эффективная температура - температура, которую ощущает одетый по сезону человек в тени. Характеристика душности погоды. При расчете учитывается влияние влажности воздуха и скорости ветра на теплоощущения человека.
Tes - Эффективная температура на солнце - температура, которую ощущает человек, с поправкой на солнечный нагрев. Характеристика знойности погоды. Зависит от высоты солнца над горизонтом, облачности и скорости ветра. Ночью, в пасмурную погоду, а также при ветре 12 м/с и более поправка равна нулю.
P - Атмосферное давление - приведенное к уровню моря атмосферное давление.
Po - Атмосферное давление - измеренное на уровне метеостанции атмосферное давление.
Tmin - Минимальная температура - минимум температуры воздуха на высоте 2 м над землей.
Tmax - Максимальная температура - максимум температуры воздуха на высоте 2 м над землей.
R - Количество осадков - Количество выпавших осадков за период времени, мм. При наведении курсора мыши на число - период времени, за который выпало указанное количество осадков.
R24 - Количество осадков - Количество выпавших осадков за 24 часа, мм.
S - Снежный покров - Высота снежного покрова, см. При наведении курсора мыши на число - состояние снежного покрова и степень покрытия местности в баллах.